Showing default

TPA-1, 64533

Orbit data source: Space-Track

TPA-1, 64533 is a New Zealander payload satellite in SSO that was launched on Mon, 23 Jun 2025 UTC via an FALCON 9 launch vehicle from the Air Force Western Test Range (AFWTR). Payload-class satellites include a variety of spacecraft equipped with specific instruments for various scientific and technological missions. These include communications satellites like Starlink; space stations such as the ISS; scientific satellites like the Hubble; Earth observation satellites from companies like Planet Labs, Umbra, and HawkEye 360; GPS; miniature CubeSats for education and research; and military/defense satellites.

Loading next visibility...
Identifier
64533, 2025-135F
Orbit
SSO
Country
Flag of NZNZ
Related business
Manufacturer
NANAV/TPA
Mission
Operational Amateur Technology
Bus & Motor
CUBESAT 3U, Unknown motor
Mass
5 kg wet, 5 kg dry
Launch date (UTC)
2025-06-23 (1 year ago)
Launch vehicle
FALCON 9
Launch site
Air Force Western Test Range (AFWTR)
Object type
Payload
Rocket body
Debris
Shape & HBR
Box, 1.5 m
Radar Cross Section
0.035 m², Medium (>0.1 m² and < 1m²)

Expand to show TLE details & history
Last TLE update: 11 hours ago

TLE from 11 hours ago
0 TPA-1
1 64533U 25135F   26178.26710457  .00004299  00000-0  19367-3 0  9996
2 64533  97.4696 293.1272 0006045 142.9577 217.2077 15.21574484 56389
Epoch: 2026-06-27T06:24Z
TLE epoch observation values (Epoch: 2026-06-27T06:24:37.834Z)
Latitude
-0.00006°
Longitude
-78.41415°
Altitude
507.495 km
Speed
7.608 km/s
True Right ascension
19h 32m 30s
True Declination
0° 00' 00"
Sunlit
Object was in full shadow at epoch
Visualization orbit readout
Latitude
Unknown
Longitude
Unknown
Altitude
Unknown
Speed
Unknown
Apparent Right ascension
Unknown
Apparent Declination
Unknown
Sunlit
N/A
Visualization observer readout
Local Sidereal Time
05:12:48
Azimuth
Unknown
Elevation
Unknown
Doppler factor
Unknown
Orbital elements
Apogee altitude
502.214 km
Perigee altitude
493.901 km
Semi-major axis
6,876.194 km
Eccentricity
0.0006
Inclination
97.4696°
RAAN
293.1272°
Arg. of periapsis
142.9577°
True anomaly
217.16584°
Mean anomaly
217.2077°
Eccentric anomaly
217.18677°
Mean motion
3.80646 °/min
Orbital period
94.58 mins
BSTAR
0.00019367
Loading maneuver chart data...
Computing Atmospheric mass density...
Loading historical data...
Loading historical data...
Loading historical data...
Loading historical data...
Loading historical data...
Loading historical data...
Loading historical data...

Documentation

Showing up to 5 results
|